EW7114 Weather Reports


Display with metric or nautical units.
time (UTC)temp
F
wind
direction
speed
MPH
gust
MPH
rain 1hr
in
rain 24hr
in
rain mn
in
humidity
%
barometer
mb
20240301181543 53 174 17.0 32.0 0.00 0.00 0.00 51 1005.0
20240301181042 53 166 23.0 32.0 0.00 0.00 0.00 50 1004.9
20240301180540 53 195 19.0 30.0 0.00 0.00 0.00 50 1005.1
20240301180041 52 167 22.0 33.0 0.00 0.00 0.00 51 1005.0
20240301175542 52 152 24.0 32.0 0.00 0.00 0.00 52 1005.0
20240301175038 52 153 22.0 31.0 0.00 0.00 0.00 52 1005.3
20240301174537 51 155 22.0 30.0 0.00 0.00 0.00 53 1005.2
20240301174041 51 163 23.0 33.0 0.00 0.00 0.00 53 1005.3
20240301173535 51 157 21.0 33.0 0.00 0.00 0.00 54 1005.3
20240301173035 51 147 22.0 30.0 0.00 0.00 0.00 54 1005.5
20240301172534 51 159 22.0 34.0 0.00 0.00 0.00 54 1005.5
20240301172034 50 159 23.0 34.0 0.00 0.00 0.00 54 1005.4
20240301171534 50 151 23.0 31.0 0.00 0.00 0.00 56 1005.5
20240301171032 49 153 23.0 33.0 0.00 0.00 0.00 55 1005.6
20240301170531 49 167 23.0 33.0 0.00 0.00 0.00 56 1005.6
20240301170036 49 145 21.0 31.0 0.00 0.00 0.00 56 1005.7
20240301165531 49 167 24.0 32.0 0.00 0.00 0.00 55 1005.7
20240301165030 49 168 24.0 32.0 0.00 0.00 0.00 56 1005.7
20240301164531 49 156 20.0 29.0 0.00 0.00 0.00 57 1005.6
20240301164032 49 153 21.0 31.0 0.00 0.00 0.00 57 1005.5
20240301163532 49 151 22.0 34.0 0.00 0.00 0.00 57 1005.5
20240301163028 49 130 24.0 34.0 0.00 0.00 0.00 57 1005.4
20240301162529 48 123 26.0 34.0 0.00 0.00 0.00 57 1005.6
20240301162028 48 133 21.0 35.0 0.00 0.00 0.00 58 1005.5
20240301161527 48 147 20.0 35.0 0.00 0.00 0.00 58 1005.5
20240301161026 48 156 21.0 34.0 0.00 0.00 0.00 58 1005.6
20240301160525 48 133 20.0 32.0 0.00 0.00 0.00 59 1005.5
20240301160024 47 143 21.0 32.0 0.00 0.00 0.00 59 1005.7
20240301155523 47 149 21.0 28.0 0.00 0.00 0.00 60 1005.8
20240301155024 47 151 18.0 26.0 0.00 0.00 0.00 61 1005.8
20240301154526 46 143 17.0 27.0 0.00 0.00 0.00 61 1005.8
20240301154023 45 128 19.0 29.0 0.00 0.00 0.00 62 1005.8
20240301153522 45 125 17.0 29.0 0.00 0.00 0.00 63 1005.8
20240301153026 44 140 16.0 25.0 0.00 0.00 0.00 64 1005.8
20240301152522 44 136 12.0 23.0 0.00 0.00 0.00 65 1005.9
20240301152022 44 130 14.0 23.0 0.00 0.00 0.00 65 1005.9
20240301151532 43 121 15.0 22.0 0.00 0.00 0.00 66 1005.9
20240301151020 43 117 15.0 21.0 0.00 0.00 0.00 66 1005.9
20240301150524 42 118 16.0 23.0 0.00 0.00 0.00 66 1005.9
20240301150020 42 130 15.0 23.0 0.00 0.00 0.00 65 1006.0
20240301145524 43 130 16.0 25.0 0.00 0.00 0.00 65 1006.1
20240301145020 43 143 17.0 26.0 0.00 0.00 0.00 64 1006.0
20240301144521 43 134 13.0 27.0 0.00 0.00 0.00 64 1006.1
20240301144021 43 134 14.0 27.0 0.00 0.00 0.00 64 1005.9
20240301143520 43 143 15.0 23.0 0.00 0.00 0.00 65 1005.8
20240301143020 42 134 14.0 21.0 0.00 0.00 0.00 65 1005.8
20240301142519 42 139 13.0 24.0 0.00 0.00 0.00 65 1005.9
20240301142019 42 124 16.0 23.0 0.00 0.00 0.00 65 1005.9
20240301141518 42 128 13.0 21.0 0.00 0.00 0.00 65 1005.9
20240301141022 41 135 14.0 20.0 0.00 0.00 0.00 66 1006.1
20240301140519 41 127 14.0 20.0 0.00 0.00 0.00 66 1006.0
20240301140019 41 126 12.0 20.0 0.00 0.00 0.00 66 1006.1
20240301135520 41 124 14.0 22.0 0.00 0.00 0.00 65 1006.0
20240301135016 42 128 15.0 24.0 0.00 0.00 0.00 65 1005.9
20240301134516 42 120 13.0 24.0 0.00 0.00 0.00 64 1006.0
20240301134015 41 120 12.0 21.0 0.00 0.00 0.00 64 1006.0
20240301133514 42 148 17.0 25.0 0.00 0.00 0.00 64 1005.8
20240301133027 42 152 18.0 25.0 0.00 0.00 0.00 64 1005.9
20240301132517 42 139 14.0 23.0 0.00 0.00 0.00 63 1005.9
20240301132013 42 105 18.0 23.0 0.00 0.00 0.00 63 1006.0
20240301131513 42 139 16.0 23.0 0.00 0.00 0.00 63 1006.0
20240301131012 42 143 15.0 23.0 0.00 0.00 0.00 62 1006.1
20240301130511 43 149 16.0 31.0 0.00 0.00 0.00 62 1006.1
20240301130011 42 121 16.0 23.0 0.00 0.00 0.00 63 1006.1
20240301125513 42 143 14.0 23.0 0.00 0.00 0.00 62 1006.1
20240301125012 43 122 14.0 24.0 0.00 0.00 0.00 61 1006.2
20240301124511 43 132 15.0 24.0 0.00 0.00 0.00 62 1006.2
20240301124010 43 118 15.0 21.0 0.00 0.00 0.00 61 1006.3
20240301123513 43 138 15.0 21.0 0.00 0.00 0.00 61 1006.3
20240301123010 43 121 14.0 20.0 0.00 0.00 0.00 60 1006.3
20240301122510 43 111 14.0 23.0 0.00 0.00 0.00 60 1006.2
20240301122012 43 107 15.0 23.0 0.00 0.00 0.00 61 1006.1
20240301121520 43 105 15.0 21.0 0.00 0.00 0.00 61 1006.3
20240301121009 42 105 15.0 20.0 0.00 0.00 0.00 62 1006.3
20240301120509 42 132 14.0 21.0 0.00 0.00 0.00 62 1006.3
20240301120016 42 119 15.0 22.0 0.00 0.00 0.00 62 1006.3
20240301115508 42 114 13.0 22.0 0.00 0.00 0.00 62 1006.2
20240301115008 42 122 13.0 23.0 0.00 0.00 0.00 62 1006.2
20240301114529 42 138 14.0 23.0 0.00 0.00 0.00 63 1006.2
20240301114007 42 103 13.0 22.0 0.00 0.00 0.00 63 1006.2
20240301113506 42 121 15.0 22.0 0.00 0.00 0.00 63 1006.2
20240301113007 42 121 15.0 21.0 0.00 0.00 0.00 63 1006.3
20240301112504 42 133 13.0 21.0 0.00 0.00 0.00 63 1006.4
20240301112004 42 128 13.0 22.0 0.00 0.00 0.00 62 1006.5
20240301111503 43 143 13.0 21.0 0.00 0.00 0.00 62 1006.6
20240301111003 43 127 14.0 19.0 0.00 0.00 0.00 62 1006.6
20240301110503 43 140 13.0 21.0 0.00 0.00 0.00 62 1006.6
20240301110003 43 114 15.0 21.0 0.00 0.00 0.00 62 1006.7
20240301105502 42 132 12.0 17.0 0.00 0.00 0.00 63 1006.8
20240301105001 42 141 13.0 18.0 0.00 0.00 0.00 63 1006.9
20240301104502 42 103 12.0 18.0 0.00 0.00 0.00 63 1006.9
20240301104100 42 124 10.0 16.0 0.00 0.00 0.00 62 1006.8
20240301103600 43 134 10.0 22.0 0.00 0.00 0.00 60 1006.8
20240301103111 44 120 17.0 27.0 0.00 0.00 0.00 60 1006.8
20240301102600 43 119 16.0 26.0 0.00 0.00 0.00 61 1006.5
20240301102101 43 128 12.0 17.0 0.00 0.00 0.00 61 1007.0
20240301101604 43 121 11.0 20.0 0.00 0.00 0.00 60 1007.1
20240301101057 43 134 13.0 20.0 0.00 0.00 0.00 61 1007.0
20240301100555 42 105 11.0 16.0 0.00 0.00 0.00 61 1007.2
20240301100102 42 110 12.0 17.0 0.00 0.00 0.00 61 1007.2
20240301095554 42 117 11.0 17.0 0.00 0.00 0.00 61 1007.3
20240301095054 42 122 12.0 17.0 0.00 0.00 0.00 61 1007.3
20240301094552 42 124 12.0 16.0 0.00 0.00 0.00 61 1007.5
20240301094051 43 127 12.0 18.0 0.00 0.00 0.00 60 1007.6
20240301093550 43 125 11.0 21.0 0.00 0.00 0.00 59 1007.6
20240301093051 43 126 16.0 21.0 0.00 0.00 0.00 60 1007.8
20240301092551 43 121 12.0 16.0 0.00 0.00 0.00 59 1007.7
20240301092047 43 95 12.0 18.0 0.00 0.00 0.00 59 1007.8
20240301091548 43 123 12.0 18.0 0.00 0.00 0.00 59 1007.9
20240301091046 43 108 12.0 17.0 0.00 0.00 0.00 58 1008.1
20240301090546 43 120 10.0 19.0 0.00 0.00 0.00 58 1008.0
20240301090052 44 107 13.0 20.0 0.00 0.00 0.00 58 1008.0
20240301085544 44 97 10.0 20.0 0.00 0.00 0.00 57 1008.1
20240301085043 44 116 13.0 20.0 0.00 0.00 0.00 57 1008.1
20240301084543 44 123 10.0 17.0 0.00 0.00 0.00 57 1008.1
20240301084043 44 120 12.0 21.0 0.00 0.00 0.00 56 1008.2
20240301083543 44 116 14.0 22.0 0.00 0.00 0.00 57 1008.3
20240301083043 44 125 15.0 21.0 0.00 0.00 0.00 57 1008.0
20240301082544 44 120 12.0 25.0 0.00 0.00 0.00 57 1008.2
20240301082044 44 116 14.0 25.0 0.00 0.00 0.00 56 1008.3
20240301081540 45 111 13.0 23.0 0.00 0.00 0.00 55 1008.3
20240301081040 46 120 16.0 23.0 0.00 0.00 0.00 54 1008.3
20240301080538 45 134 15.0 21.0 0.00 0.00 0.00 55 1008.3
20240301080045 45 128 9.0 20.0 0.00 0.00 0.00 55 1008.4
20240301075537 45 105 14.0 19.0 0.00 0.00 0.00 55 1008.3
20240301075038 45 99 12.0 23.0 0.00 0.00 0.00 55 1008.4
20240301074539 45 107 14.0 23.0 0.00 0.00 0.00 55 1008.6
20240301074037 46 109 15.0 20.0 0.00 0.00 0.00 54 1008.4
20240301073041 46 103 14.0 23.0 0.00 0.00 0.00 54 1008.4
20240301072534 46 99 16.0 23.0 0.00 0.00 0.00 53 1008.5
20240301072033 47 86 12.0 26.0 0.00 0.00 0.00 52 1008.6
20240301071535 46 91 17.0 26.0 0.00 0.00 0.00 53 1008.5
20240301071032 46 122 12.0 20.0 0.00 0.00 0.00 54 1008.5
20240301070531 46 98 12.0 23.0 0.00 0.00 0.00 54 1008.6
20240301070034 46 118 17.0 23.0 0.00 0.00 0.00 53 1008.6
20240301065528 46 113 14.0 22.0 0.00 0.00 0.00 53 1008.6
20240301065026 46 78 14.0 20.0 0.00 0.00 0.00 54 1008.9
20240301064526 46 114 13.0 20.0 0.00 0.00 0.00 53 1008.8
20240301064024 46 118 11.0 18.0 0.00 0.00 0.00 53 1009.1
20240301063523 46 114 12.0 21.0 0.00 0.00 0.00 53 1009.0
20240301063022 46 137 13.0 20.0 0.00 0.00 0.00 53 1009.0
20240301062521 46 127 12.0 20.0 0.00 0.00 0.00 53 1008.9
20240301062018 46 107 13.0 18.0 0.00 0.00 0.00 54 1009.1
20240301061517 45 124 12.0 18.0 0.00 0.00 0.00 55 1009.1
20240301061015 46 109 11.0 19.0 0.00 0.00 0.00 54 1009.1
20240301060513 46 136 13.0 21.0 0.00 0.00 0.00 54 1009.1
20240301060022 46 113 12.0 21.0 0.00 0.00 0.00 54 1009.1
20240301055512 46 127 12.0 19.0 0.00 0.00 0.00 54 1009.0
20240301055009 46 111 13.0 20.0 0.00 0.00 0.00 54 1009.2
20240301054508 46 77 12.0 20.0 0.00 0.00 0.00 54 1009.3
20240301054006 46 103 12.0 17.0 0.00 0.00 0.00 54 1009.5
20240301053505 46 113 11.0 16.0 0.00 0.00 0.00 54 1009.5
20240301053003 46 107 10.0 18.0 0.00 0.00 0.00 54 1009.6
20240301052502 45 120 11.0 18.0 0.00 0.00 0.00 54 1009.5
20240301052002 45 107 11.0 16.0 0.00 0.00 0.00 54 1009.4
20240301051614 45 109 12.0 18.0 0.00 0.00 0.00 54 1009.4
20240301051058 45 109 11.0 18.0 0.00 0.00 0.00 54 1009.5
20240301050557 45 99 12.0 18.0 0.00 0.00 0.00 54 1009.5
20240301050059 45 122 12.0 18.0 0.00 0.00 0.00 54 1009.4
20240301045553 45 113 11.0 17.0 0.00 0.00 0.00 54 1009.4
20240301045051 45 113 12.0 17.0 0.00 0.00 0.00 53 1009.4
20240301044551 45 107 11.0 16.0 0.00 0.00 0.00 54 1009.4
20240301044049 45 106 11.0 15.0 0.00 0.00 0.00 53 1009.3
20240301043547 44 100 10.0 16.0 0.00 0.00 0.00 54 1009.3
20240301043054 44 118 10.0 15.0 0.00 0.00 0.00 53 1009.1
20240301042544 44 110 11.0 15.0 0.00 0.00 0.00 53 1009.1
20240301042043 44 107 8.0 13.0 0.00 0.00 0.00 52 1009.2
20240301041542 46 112 9.0 19.0 0.00 0.00 0.00 50 1009.0
20240301041042 47 139 13.0 21.0 0.00 0.00 0.00 49 1008.9
20240301040538 47 143 14.0 22.0 0.00 0.00 0.00 49 1008.9
20240301040041 47 152 13.0 22.0 0.00 0.00 0.00 49 1008.9
20240301035535 47 171 14.0 21.0 0.00 0.00 0.00 48 1008.8
20240301035033 47 154 13.0 21.0 0.00 0.00 0.00 48 1008.8
20240301034533 48 143 15.0 24.0 0.00 0.00 0.00 46 1008.8
20240301034033 48 163 14.0 25.0 0.00 0.00 0.00 46 1008.7
20240301033529 49 153 18.0 24.0 0.00 0.00 0.00 45 1008.7
20240301033038 49 147 20.0 24.0 0.00 0.00 0.00 45 1008.7
20240301032527 48 137 15.0 26.0 0.00 0.00 0.00 47 1008.7
20240301032025 48 154 15.0 22.0 0.00 0.00 0.00 47 1008.7
20240301031526 48 149 15.0 22.0 0.00 0.00 0.00 47 1008.7
20240301031022 47 165 13.0 21.0 0.00 0.00 0.00 48 1008.8
20240301030525 46 124 12.0 16.0 0.00 0.00 0.00 50 1008.9
20240301030024 45 124 11.0 18.0 0.00 0.00 0.00 51 1008.9
20240301025520 45 123 12.0 18.0 0.00 0.00 0.00 51 1008.8
20240301025117 45 142 13.0 18.0 0.00 0.00 0.00 51 1008.8
20240301024515 46 109 11.0 17.0 0.00 0.00 0.00 50 1008.6
20240301024013 47 91 10.0 21.0 0.00 0.00 0.00 48 1008.7
20240301023512 48 122 14.0 25.0 0.00 0.00 0.00 47 1008.6
20240301023021 48 130 15.0 25.0 0.00 0.00 0.00 47 1008.4
20240301022510 48 124 13.0 20.0 0.00 0.00 0.00 47 1008.5
20240301022008 48 147 12.0 22.0 0.00 0.00 0.00 46 1008.6
20240301021509 48 159 16.0 22.0 0.00 0.00 0.00 46 1008.5
20240301021005 49 153 16.0 25.0 0.00 0.00 0.00 45 1008.4
20240301020503 49 122 17.0 25.0 0.00 0.00 0.00 45 1008.2
20240301020001 49 131 16.0 21.0 0.00 0.00 0.00 45 1008.2
20240301015601 48 147 13.0 21.0 0.00 0.00 0.00 46 1008.2
20240301015059 48 151 13.0 21.0 0.00 0.00 0.00 46 1008.3
20240301014559 48 149 16.0 21.0 0.00 0.00 0.00 45 1008.3
20240301014057 48 122 12.0 18.0 0.00 0.00 0.00 46 1008.4
20240301013600 48 128 13.0 17.0 0.00 0.00 0.00 45 1008.6
20240301013100 48 139 13.0 17.0 0.00 0.00 0.00 45 1008.6
20240301012552 48 133 12.0 17.0 0.00 0.00 0.00 45 1008.6
20240301012051 49 154 10.0 17.0 0.00 0.00 0.00 45 1008.6
20240301011551 49 135 10.0 16.0 0.00 0.00 0.00 44 1008.6
20240301011048 50 123 9.0 16.0 0.00 0.00 0.00 43 1008.7
20240301010546 50 138 10.0 15.0 0.00 0.00 0.00 42 1008.7
20240301010049 51 151 9.0 15.0 0.00 0.00 0.00 41 1008.7
20240301005543 52 140 11.0 18.0 0.00 0.00 0.00 39 1008.7
20240301005046 52 141 14.0 18.0 0.00 0.00 0.00 38 1008.6
20240301004555 52 161 14.0 20.0 0.00 0.00 0.00 39 1008.6
20240301004039 53 150 13.0 16.0 0.00 0.00 0.00 39 1008.6
20240301003537 53 171 10.0 20.0 0.00 0.00 0.00 38 1008.7
20240301003045 54 132 14.0 21.0 0.00 0.00 0.00 37 1008.8
20240301002534 54 140 11.0 21.0 0.00 0.00 0.00 37 1008.8
20240301002036 55 136 11.0 21.0 0.00 0.00 0.00 36 1008.9
20240301001531 55 138 15.0 21.0 0.00 0.00 0.00 35 1009.1
20240301001031 55 151 14.0 23.0 0.00 0.00 0.00 34 1009.1
20240301000528 55 165 11.0 23.0 0.00 0.00 0.00 35 1009.2
20240301000026 55 165 16.0 22.0 0.00 0.00 0.00 33 1009.3
20240229235526 56 155 14.0 23.0 0.00 0.00 0.00 33 1009.5
20240229235024 56 169 14.0 22.0 0.00 0.00 0.00 34 1009.4
20240229234524 56 182 12.0 22.0 0.00 0.00 0.00 33 1009.4
20240229234021 56 163 13.0 22.0 0.00 0.00 0.00 33 1009.6
20240229233519 56 155 13.0 19.0 0.00 0.00 0.00 32 1009.7
20240229233032 56 164 13.0 20.0 0.00 0.00 0.00 34 1009.7
20240229232516 56 171 16.0 21.0 0.00 0.00 0.00 34 1009.8
20240229232019 55 169 11.0 20.0 0.00 0.00 0.00 35 1009.9
20240229231513 55 159 15.0 21.0 0.00 0.00 0.00 34 1010.0
20240229231013 55 170 15.0 20.0 0.00 0.00 0.00 35 1010.2
20240229230510 54 149 11.0 20.0 0.00 0.00 0.00 36 1010.4
20240229230019 54 151 14.0 20.0 0.00 0.00 0.00 36 1010.5
20240229225508 54 147 11.0 19.0 0.00 0.00 0.00 37 1010.5
20240229225006 54 161 13.0 19.0 0.00 0.00 0.00 35 1010.6
20240229224505 54 161 12.0 17.0 0.00 0.00 0.00 36 1010.5
20240229224003 54 137 10.0 14.0 0.00 0.00 0.00 35 1010.6
20240229223502 55 176 10.0 14.0 0.00 0.00 0.00 36 1010.8
20240229223100 55 159 9.0 20.0 0.00 0.00 0.00 35 1010.9
20240229222559 55 136 11.0 20.0 0.00 0.00 0.00 35 1011.1
20240229222103 54 157 13.0 18.0 0.00 0.00 0.00 35 1011.2
20240229221603 54 159 12.0 18.0 0.00 0.00 0.00 36 1011.1
20240229221055 54 174 13.0 18.0 0.00 0.00 0.00 36 1011.2
20240229220553 54 175 12.0 19.0 0.00 0.00 0.00 37 1011.2
20240229220052 54 157 13.0 20.0 0.00 0.00 0.00 36 1011.3
20240229215550 54 191 13.0 19.0 0.00 0.00 0.00 35 1011.4
20240229215049 54 171 12.0 22.0 0.00 0.00 0.00 35 1011.3
20240229214548 54 176 13.0 22.0 0.00 0.00 0.00 35 1011.4
20240229214046 54 180 14.0 21.0 0.00 0.00 0.00 35 1011.5
20240229213545 54 180 12.0 19.0 0.00 0.00 0.00 35 1011.6
20240229213044 54 179 13.0 18.0 0.00 0.00 0.00 35 1011.8
20240229212542 54 170 13.0 18.0 0.00 0.00 0.00 35 1011.7
20240229212043 55 183 12.0 15.0 0.00 0.00 0.00 35 1011.8
20240229211540 55 186 10.0 15.0 0.00 0.00 0.00 34 1011.8
20240229211038 55 172 10.0 17.0 0.00 0.00 0.00 33 1011.9
20240229210537 55 145 10.0 17.0 0.00 0.00 0.00 34 1012.1
20240229210037 55 194 4.0 21.0 0.00 0.00 0.00 34 1012.2
20240229205533 56 219 6.0 21.0 0.00 0.00 0.00 31 1012.4
20240229205032 56 161 9.0 22.0 0.00 0.00 0.00 32 1012.2
20240229204534 56 184 12.0 22.0 0.00 0.00 0.00 33 1012.3
20240229204028 55 184 12.0 17.0 0.00 0.00 0.00 32 1012.4
20240229203527 56 184 9.0 17.0 0.00 0.00 0.00 32 1012.6
20240229203027 56 143 11.0 14.0 0.00 0.00 0.00 32 1012.7
20240229202524 55 147 9.0 13.0 0.00 0.00 0.00 33 1012.9
20240229202023 54 182 5.0 10.0 0.00 0.00 0.00 35 1013.2
20240229201528 54 186 5.0 13.0 0.00 0.00 0.00 38 1013.2
20240229201023 54 182 8.0 13.0 0.00 0.00 0.00 34 1013.3
20240229200519 53 205 9.0 14.0 0.00 0.00 0.00 33 1013.4
20240229200021 53 184 10.0 23.0 0.00 0.00 0.00 34 1013.5
20240229195516 53 160 14.0 23.0 0.00 0.00 0.00 34 1013.5
20240229195014 52 159 15.0 23.0 0.00 0.00 0.00 35 1013.6
20240229194512 52 161 16.0 21.0 0.00 0.00 0.00 35 1013.9
20240229194011 52 154 13.0 21.0 0.00 0.00 0.00 36 1013.9
20240229193510 52 158 15.0 24.0 0.00 0.00 0.00 35 1013.9
20240229193009 52 145 18.0 24.0 0.00 0.00 0.00 35 1014.0
20240229192510 53 153 15.0 20.0 0.00 0.00 0.00 34 1014.1
20240229192006 54 157 15.0 23.0 0.00 0.00 0.00 33 1014.3
20240229191504 55 148 16.0 24.0 0.00 0.00 0.00 33 1014.4
20240229191005 54 138 14.0 23.0 0.00 0.00 0.00 34 1014.5
20240229190501 53 132 15.0 25.0 0.00 0.00 0.00 34 1014.5
20240229190107 53 145 18.0 25.0 0.00 0.00 0.00 33 1014.6
20240229185558 53 112 17.0 24.0 0.00 0.00 0.00 34 1014.7
20240229185056 53 140 17.0 26.0 0.00 0.00 0.00 34 1014.8
20240229184557 53 121 18.0 26.0 0.00 0.00 0.00 34 1014.8
20240229184054 53 161 15.0 25.0 0.00 0.00 0.00 34 1014.8
20240229183553 53 165 14.0 25.0 0.00 0.00 0.00 35 1015.0
20240229183052 52 130 18.0 25.0 0.00 0.00 0.00 34 1015.0
20240229182550 52 127 17.0 25.0 0.00 0.00 0.00 34 1014.9
20240229182054 53 154 15.0 25.0 0.00 0.00 0.00 36 1014.9